Year,Month,Day,Hour,Minute,Value (Times are PST for windspeed in km/hr)
2016,07,29,00,00,8.10
2016,07,29,00,01,10.20
2016,07,29,00,02,10.80
2016,07,29,00,03,8.60
2016,07,29,00,04,9.50
2016,07,29,00,05,11.30
2016,07,29,00,06,8.70
2016,07,29,00,07,7.00
2016,07,29,00,08,10.10
2016,07,29,00,09,13.50
2016,07,29,00,10,11.10
2016,07,29,00,11,6.70
2016,07,29,00,12,7.00
2016,07,29,00,13,5.40
2016,07,29,00,14,10.50
2016,07,29,00,15,8.60
2016,07,29,00,16,10.90
2016,07,29,00,17,6.00
2016,07,29,00,18,8.00
2016,07,29,00,19,6.60
2016,07,29,00,20,5.20
2016,07,29,00,21,5.40
2016,07,29,00,22,6.30
2016,07,29,00,23,5.80
2016,07,29,00,24,4.20
2016,07,29,00,25,8.10
2016,07,29,00,26,6.90
2016,07,29,00,27,11.20
2016,07,29,00,28,7.40
2016,07,29,00,29,6.30
2016,07,29,00,30,7.20
2016,07,29,00,31,6.60
2016,07,29,00,32,6.10
2016,07,29,00,33,6.20
2016,07,29,00,34,4.20
2016,07,29,00,35,6.30
2016,07,29,00,36,7.20
2016,07,29,00,37,6.30
2016,07,29,00,38,4.00
2016,07,29,00,39,3.20
2016,07,29,00,40,3.30
2016,07,29,00,41,9.80
2016,07,29,00,42,8.30
2016,07,29,00,43,7.40
2016,07,29,00,44,5.10
2016,07,29,00,45,4.00
2016,07,29,00,46,5.20
2016,07,29,00,47,5.40
2016,07,29,00,48,3.30
2016,07,29,00,49,4.60
2016,07,29,00,50,4.00
2016,07,29,00,51,7.00
2016,07,29,00,52,4.20
2016,07,29,00,53,4.90
2016,07,29,00,54,9.70
2016,07,29,00,55,6.00
2016,07,29,00,56,7.60
2016,07,29,00,57,9.30
2016,07,29,00,58,10.10
2016,07,29,00,59,8.90
2016,07,29,01,00,8.70
2016,07,29,01,01,8.00
2016,07,29,01,02,6.50
2016,07,29,01,03,9.60
2016,07,29,01,04,9.20
2016,07,29,01,05,5.40
2016,07,29,01,06,11.00
2016,07,29,01,07,10.70
2016,07,29,01,08,11.80
2016,07,29,01,09,14.30
2016,07,29,01,10,9.80
2016,07,29,01,11,7.10
2016,07,29,01,12,7.20
2016,07,29,01,13,4.90
2016,07,29,01,14,4.30
2016,07,29,01,15,5.20
2016,07,29,01,16,5.80
2016,07,29,01,17,6.10
2016,07,29,01,18,4.80
2016,07,29,01,19,9.40
2016,07,29,01,20,8.40
2016,07,29,01,21,5.50
2016,07,29,01,22,8.30
2016,07,29,01,23,7.30
2016,07,29,01,24,6.70
2016,07,29,01,25,6.90
2016,07,29,01,26,7.20
2016,07,29,01,27,8.60
2016,07,29,01,28,6.40
2016,07,29,01,29,5.20
2016,07,29,01,30,5.70
2016,07,29,01,31,3.90
2016,07,29,01,32,4.60
2016,07,29,01,33,5.10
2016,07,29,01,34,12.30
2016,07,29,01,35,7.90
2016,07,29,01,36,8.20
2016,07,29,01,37,9.10
2016,07,29,01,38,10.90
2016,07,29,01,39,9.70
2016,07,29,01,40,5.50
2016,07,29,01,41,7.00
2016,07,29,01,42,11.60
2016,07,29,01,43,14.50
2016,07,29,01,44,8.20
2016,07,29,01,45,7.00
2016,07,29,01,46,6.70
2016,07,29,01,47,10.70
2016,07,29,01,48,8.20
2016,07,29,01,49,7.60
2016,07,29,01,50,9.90
2016,07,29,01,51,10.70
2016,07,29,01,52,9.20
2016,07,29,01,53,9.20
2016,07,29,01,54,14.70
2016,07,29,01,55,13.50
2016,07,29,01,56,12.00
2016,07,29,01,57,8.50
2016,07,29,01,58,13.80
2016,07,29,01,59,8.90
2016,07,29,02,00,9.10
2016,07,29,02,01,7.90
2016,07,29,02,02,9.70
2016,07,29,02,03,6.70
2016,07,29,02,04,6.10
2016,07,29,02,05,10.10
2016,07,29,02,06,8.10
2016,07,29,02,07,11.30
2016,07,29,02,08,12.80
2016,07,29,02,09,11.90
2016,07,29,02,10,6.90
2016,07,29,02,11,6.20
2016,07,29,02,12,7.00
2016,07,29,02,13,7.00
2016,07,29,02,14,6.80
2016,07,29,02,15,5.60
2016,07,29,02,16,9.30
2016,07,29,02,17,4.90
2016,07,29,02,18,9.40
2016,07,29,02,19,10.80
2016,07,29,02,20,10.30
2016,07,29,02,21,9.40
2016,07,29,02,22,13.40
2016,07,29,02,23,9.10
2016,07,29,02,24,4.40
2016,07,29,02,25,8.20
2016,07,29,02,26,7.20
2016,07,29,02,27,6.00
2016,07,29,02,28,12.30
2016,07,29,02,29,9.70
2016,07,29,02,30,7.20
2016,07,29,02,31,12.30
2016,07,29,02,32,10.10
2016,07,29,02,33,8.20
2016,07,29,02,34,7.40
2016,07,29,02,35,8.10
2016,07,29,02,36,12.30
2016,07,29,02,37,9.10
2016,07,29,02,38,8.70
2016,07,29,02,39,8.30
2016,07,29,02,40,5.80
2016,07,29,02,41,4.80
2016,07,29,02,42,5.00
2016,07,29,02,43,5.70
2016,07,29,02,44,7.60
2016,07,29,02,45,12.30
2016,07,29,02,46,7.40
2016,07,29,02,47,8.80
2016,07,29,02,48,6.70
2016,07,29,02,49,11.80
2016,07,29,02,50,7.00
2016,07,29,02,51,10.70
2016,07,29,02,52,10.70
2016,07,29,02,53,6.90
2016,07,29,02,54,8.80
2016,07,29,02,55,7.30
2016,07,29,02,56,6.20
2016,07,29,02,57,4.20
2016,07,29,02,58,5.70
2016,07,29,02,59,6.40
2016,07,29,03,00,3.90
2016,07,29,03,01,3.50
2016,07,29,03,02,8.30
2016,07,29,03,03,7.20
2016,07,29,03,04,6.60
2016,07,29,03,05,12.20
2016,07,29,03,06,9.50
2016,07,29,03,07,8.60
2016,07,29,03,08,5.80
2016,07,29,03,09,7.20
2016,07,29,03,10,7.60
2016,07,29,03,11,10.20
2016,07,29,03,12,10.30
2016,07,29,03,13,9.40
2016,07,29,03,14,11.30
2016,07,29,03,15,9.90
2016,07,29,03,16,5.80
2016,07,29,03,17,10.40
2016,07,29,03,18,11.70
2016,07,29,03,19,6.10
2016,07,29,03,20,8.90
2016,07,29,03,21,7.00
2016,07,29,03,22,5.70
2016,07,29,03,23,7.30
2016,07,29,03,24,8.60
2016,07,29,03,25,7.70
2016,07,29,03,26,4.90
2016,07,29,03,27,7.20
2016,07,29,03,28,3.60
2016,07,29,03,29,5.80
2016,07,29,03,30,11.80
2016,07,29,03,31,10.20
2016,07,29,03,32,13.10
2016,07,29,03,33,7.00
2016,07,29,03,34,4.40
2016,07,29,03,35,9.40
2016,07,29,03,36,10.30
2016,07,29,03,37,9.30
2016,07,29,03,38,10.00
2016,07,29,03,39,6.90
2016,07,29,03,40,7.40
2016,07,29,03,41,6.40
2016,07,29,03,42,8.40
2016,07,29,03,43,5.80
2016,07,29,03,44,9.40
2016,07,29,03,45,7.20
2016,07,29,03,46,8.60
2016,07,29,03,47,7.30
2016,07,29,03,48,5.80
2016,07,29,03,49,8.10
2016,07,29,03,50,6.90
2016,07,29,03,51,8.10
2016,07,29,03,52,8.50
2016,07,29,03,53,11.30
2016,07,29,03,54,11.40
2016,07,29,03,55,10.60
2016,07,29,03,56,7.60
2016,07,29,03,57,11.90
2016,07,29,03,58,11.10
2016,07,29,03,59,5.30
2016,07,29,04,00,4.70
2016,07,29,04,01,7.20
2016,07,29,04,02,8.10
2016,07,29,04,03,5.80
2016,07,29,04,04,6.40
2016,07,29,04,05,3.90
2016,07,29,04,06,7.30
2016,07,29,04,07,6.10
2016,07,29,04,08,6.30
2016,07,29,04,09,3.90
2016,07,29,04,10,5.70
2016,07,29,04,11,6.10
2016,07,29,04,12,5.80
2016,07,29,04,13,7.60
2016,07,29,04,14,7.10
2016,07,29,04,15,3.20
2016,07,29,04,16,2.20
2016,07,29,04,17,5.50
2016,07,29,04,18,5.00
2016,07,29,04,19,6.50
2016,07,29,04,20,5.70
2016,07,29,04,21,6.70
2016,07,29,04,22,5.20
2016,07,29,04,23,5.20
2016,07,29,04,24,11.60
2016,07,29,04,25,8.80
2016,07,29,04,26,7.80
2016,07,29,04,27,6.60
2016,07,29,04,28,8.70
2016,07,29,04,29,6.30
2016,07,29,04,30,3.30
2016,07,29,04,31,7.60
2016,07,29,04,32,5.10
2016,07,29,04,33,5.20
2016,07,29,04,34,6.70
2016,07,29,04,35,9.50
2016,07,29,04,36,7.60
2016,07,29,04,37,9.00
2016,07,29,04,38,9.00
2016,07,29,04,39,6.60
2016,07,29,04,40,4.30
2016,07,29,04,41,3.80
2016,07,29,04,42,6.10
2016,07,29,04,43,3.60
2016,07,29,04,44,6.70
2016,07,29,04,45,2.40
2016,07,29,04,46,2.30
2016,07,29,04,47,2.60
2016,07,29,04,48,4.90
2016,07,29,04,49,6.10
2016,07,29,04,50,3.00
2016,07,29,04,51,3.00
2016,07,29,04,52,4.20
2016,07,29,04,53,4.00
2016,07,29,04,54,3.40
2016,07,29,04,55,4.50
2016,07,29,04,56,5.10
2016,07,29,04,57,4.70
2016,07,29,04,58,4.00
2016,07,29,04,59,1.70
2016,07,29,05,00,1.40
2016,07,29,05,01,4.60
2016,07,29,05,02,7.00
2016,07,29,05,03,4.50
2016,07,29,05,04,3.80
2016,07,29,05,05,7.10
2016,07,29,05,06,4.10
2016,07,29,05,07,2.70
2016,07,29,05,08,6.10
2016,07,29,05,09,5.10
2016,07,29,05,10,2.90
2016,07,29,05,11,3.30
2016,07,29,05,12,3.20
2016,07,29,05,13,7.30
2016,07,29,05,14,3.50
2016,07,29,05,15,1.90
2016,07,29,05,16,2.70
2016,07,29,05,17,2.50
2016,07,29,05,18,3.80
2016,07,29,05,19,3.90
2016,07,29,05,20,5.60
2016,07,29,05,21,4.80
2016,07,29,05,22,3.30
2016,07,29,05,23,1.10
2016,07,29,05,24,1.20
2016,07,29,05,25,4.30
2016,07,29,05,26,5.00
2016,07,29,05,27,3.80
2016,07,29,05,28,3.40
2016,07,29,05,29,2.30
2016,07,29,05,30,2.90
2016,07,29,05,31,2.80
2016,07,29,05,32,1.70
2016,07,29,05,33,1.00
2016,07,29,05,34,1.00
2016,07,29,05,35,1.40
2016,07,29,05,36,1.50
2016,07,29,05,37,1.00
2016,07,29,05,38,0.20
2016,07,29,05,39,0.00
2016,07,29,05,40,0.00
2016,07,29,05,41,2.10
2016,07,29,05,42,2.30
2016,07,29,05,43,1.00
2016,07,29,05,44,0.70
2016,07,29,05,45,0.80
2016,07,29,05,46,1.70
2016,07,29,05,47,0.80
2016,07,29,05,48,0.70
2016,07,29,05,49,2.00
2016,07,29,05,50,1.90
2016,07,29,05,51,0.20
2016,07,29,05,52,1.00
2016,07,29,05,53,1.10
2016,07,29,05,54,3.90
2016,07,29,05,55,4.20
2016,07,29,05,56,4.60
2016,07,29,05,57,5.10
2016,07,29,05,58,5.40
2016,07,29,05,59,6.80
2016,07,29,06,00,3.20
2016,07,29,06,01,5.80
2016,07,29,06,02,4.90
2016,07,29,06,03,4.80
2016,07,29,06,04,5.80
2016,07,29,06,05,9.40
2016,07,29,06,06,6.60
2016,07,29,06,07,4.90
2016,07,29,06,08,5.70
2016,07,29,06,09,5.20
2016,07,29,06,10,7.00
2016,07,29,06,11,9.40
2016,07,29,06,12,6.90
2016,07,29,06,13,8.60
2016,07,29,06,14,5.30
2016,07,29,06,15,6.00
2016,07,29,06,16,3.90
2016,07,29,06,17,5.20
2016,07,29,06,18,8.20
2016,07,29,06,19,9.90
2016,07,29,06,20,6.70
2016,07,29,06,21,12.80
2016,07,29,06,22,7.60
2016,07,29,06,23,8.10
2016,07,29,06,24,8.10
2016,07,29,06,25,7.60
2016,07,29,06,26,6.70
2016,07,29,06,27,5.40
2016,07,29,06,28,6.30
2016,07,29,06,29,5.80
2016,07,29,06,30,4.90
2016,07,29,06,31,5.00
2016,07,29,06,32,4.10
2016,07,29,06,33,3.50
2016,07,29,06,34,2.40
2016,07,29,06,35,0.90
2016,07,29,06,36,1.60
2016,07,29,06,37,2.10
2016,07,29,06,38,3.10
2016,07,29,06,39,1.20
2016,07,29,06,40,1.90
2016,07,29,06,41,4.30
2016,07,29,06,42,10.90
2016,07,29,06,43,10.60
2016,07,29,06,44,6.70
2016,07,29,06,45,7.60
2016,07,29,06,46,8.80
2016,07,29,06,47,9.80
2016,07,29,06,48,8.60
2016,07,29,06,49,7.80
2016,07,29,06,50,8.80
2016,07,29,06,51,13.30
2016,07,29,06,52,11.30
2016,07,29,06,53,11.50
2016,07,29,06,54,10.30
2016,07,29,06,55,11.00
2016,07,29,06,56,11.20
2016,07,29,06,57,15.00
2016,07,29,06,58,8.60
2016,07,29,06,59,7.00
2016,07,29,07,00,10.70
2016,07,29,07,01,12.30
2016,07,29,07,02,8.00
2016,07,29,07,03,9.00
2016,07,29,07,04,8.90
2016,07,29,07,05,6.90
2016,07,29,07,06,5.20
2016,07,29,07,07,7.60
2016,07,29,07,08,13.70
2016,07,29,07,09,9.50
2016,07,29,07,10,8.40
2016,07,29,07,11,5.30
2016,07,29,07,12,5.40
2016,07,29,07,13,5.80
2016,07,29,07,14,10.20
2016,07,29,07,15,7.70
2016,07,29,07,16,5.50
2016,07,29,07,17,11.10
2016,07,29,07,18,9.60
2016,07,29,07,19,6.30
2016,07,29,07,20,7.00
2016,07,29,07,21,8.30
2016,07,29,07,22,9.40
2016,07,29,07,23,9.50
2016,07,29,07,24,9.80
2016,07,29,07,25,11.90
2016,07,29,07,26,14.50
2016,07,29,07,27,12.30
2016,07,29,07,28,11.30
2016,07,29,07,29,14.20
2016,07,29,07,30,17.50
2016,07,29,07,31,9.90
2016,07,29,07,32,7.50
2016,07,29,07,33,9.70
2016,07,29,07,34,13.20
2016,07,29,07,35,9.80
2016,07,29,07,36,7.50
2016,07,29,07,37,9.40
2016,07,29,07,38,8.80
2016,07,29,07,39,9.30
2016,07,29,07,40,8.70
2016,07,29,07,41,6.90
2016,07,29,07,42,8.00
2016,07,29,07,43,10.10
2016,07,29,07,44,12.90
2016,07,29,07,45,12.30
2016,07,29,07,46,11.80
2016,07,29,07,47,9.80
2016,07,29,07,48,14.50
2016,07,29,07,49,10.00
2016,07,29,07,50,6.80
2016,07,29,07,51,8.00
2016,07,29,07,52,4.60
2016,07,29,07,53,6.30
2016,07,29,07,54,7.40
2016,07,29,07,55,9.40
2016,07,29,07,56,5.40
2016,07,29,07,57,4.50
2016,07,29,07,58,6.90
2016,07,29,07,59,8.10
2016,07,29,08,00,10.00
2016,07,29,08,01,7.90
2016,07,29,08,02,5.70
2016,07,29,08,03,9.80
2016,07,29,08,04,8.50
2016,07,29,08,05,5.30
2016,07,29,08,06,7.20
2016,07,29,08,07,9.20
2016,07,29,08,08,7.50
2016,07,29,08,09,6.40
2016,07,29,08,10,15.10
2016,07,29,08,11,12.80
2016,07,29,08,12,9.30
2016,07,29,08,13,12.30
2016,07,29,08,14,7.60
2016,07,29,08,15,8.20
2016,07,29,08,16,13.10
2016,07,29,08,17,12.00
2016,07,29,08,18,10.80
2016,07,29,08,19,6.30
2016,07,29,08,20,9.00
2016,07,29,08,21,10.50
2016,07,29,08,22,14.80
2016,07,29,08,23,17.80
2016,07,29,08,24,14.50
2016,07,29,08,25,11.40
2016,07,29,08,26,13.10
2016,07,29,08,27,10.30
2016,07,29,08,28,10.20
2016,07,29,08,29,8.90
2016,07,29,08,30,10.10
2016,07,29,08,31,10.50
2016,07,29,08,32,12.20
2016,07,29,08,33,7.20
2016,07,29,08,34,18.90
2016,07,29,08,35,12.20
2016,07,29,08,36,10.90
2016,07,29,08,37,15.00
2016,07,29,08,38,14.50
2016,07,29,08,39,15.60
2016,07,29,08,40,12.30
2016,07,29,08,41,14.40
2016,07,29,08,42,21.80
2016,07,29,08,43,17.90
2016,07,29,08,44,16.00
2016,07,29,08,45,9.10
2016,07,29,08,46,10.60
2016,07,29,08,47,10.90
2016,07,29,08,48,12.80
2016,07,29,08,49,15.80
2016,07,29,08,50,12.50
2016,07,29,08,51,13.80
2016,07,29,08,52,12.10
2016,07,29,08,53,5.80
2016,07,29,08,54,13.30
2016,07,29,08,55,12.70
2016,07,29,08,56,11.10
2016,07,29,08,57,11.40
2016,07,29,08,58,12.70
2016,07,29,08,59,14.10
2016,07,29,09,00,15.30
2016,07,29,09,01,13.90
2016,07,29,09,02,10.90
2016,07,29,09,03,8.50
2016,07,29,09,04,11.10
2016,07,29,09,05,8.80
2016,07,29,09,06,7.90
2016,07,29,09,07,7.30
2016,07,29,09,08,8.30
2016,07,29,09,09,15.00
2016,07,29,09,10,18.00
2016,07,29,09,11,17.90
2016,07,29,09,12,15.10
2016,07,29,09,13,9.80
2016,07,29,09,14,15.10
2016,07,29,09,15,8.60
2016,07,29,09,16,9.80
2016,07,29,09,17,11.60
2016,07,29,09,18,11.20
2016,07,29,09,19,12.30
2016,07,29,09,20,13.10
2016,07,29,09,21,15.10
2016,07,29,09,22,10.40
2016,07,29,09,23,13.40
2016,07,29,09,24,10.30
2016,07,29,09,25,15.70
2016,07,29,09,26,17.90
2016,07,29,09,27,18.20
2016,07,29,09,28,11.60
2016,07,29,09,29,7.50
2016,07,29,09,30,6.80
2016,07,29,09,31,6.40
2016,07,29,09,32,7.30
2016,07,29,09,33,6.30
2016,07,29,09,34,5.50
2016,07,29,09,35,7.90
2016,07,29,09,36,10.20
2016,07,29,09,37,8.40
2016,07,29,09,38,6.20
2016,07,29,09,39,11.70
2016,07,29,09,40,11.10
2016,07,29,09,41,11.10
2016,07,29,09,42,10.80
2016,07,29,09,43,12.20
2016,07,29,09,44,6.70
2016,07,29,09,45,10.90
2016,07,29,09,46,9.10
2016,07,29,09,47,11.10
2016,07,29,09,48,12.60
2016,07,29,09,49,10.00
2016,07,29,09,50,12.70
2016,07,29,09,51,12.30
2016,07,29,09,52,15.10
2016,07,29,09,53,23.00
2016,07,29,09,54,12.20
2016,07,29,09,55,14.40
2016,07,29,09,56,16.90
2016,07,29,09,57,15.50
2016,07,29,09,58,13.50
2016,07,29,09,59,16.30
2016,07,29,10,00,19.20
2016,07,29,10,01,14.60
2016,07,29,10,02,14.00
2016,07,29,10,03,12.80
2016,07,29,10,04,8.60
2016,07,29,10,05,4.40
2016,07,29,10,06,4.70
2016,07,29,10,07,13.90
2016,07,29,10,08,15.30
2016,07,29,10,09,12.40
2016,07,29,10,10,16.90
2016,07,29,10,11,13.40
2016,07,29,10,12,16.70
2016,07,29,10,13,18.40
2016,07,29,10,14,10.60
2016,07,29,10,15,7.70
2016,07,29,10,16,8.00
2016,07,29,10,17,8.80
2016,07,29,10,18,9.00
2016,07,29,10,19,11.90
2016,07,29,10,20,5.10
2016,07,29,10,21,13.30
2016,07,29,10,22,19.90
2016,07,29,10,23,21.10
2016,07,29,10,24,15.30
2016,07,29,10,25,13.50
2016,07,29,10,26,12.60
2016,07,29,10,27,15.30
2016,07,29,10,28,21.60
2016,07,29,10,29,13.70
2016,07,29,10,30,8.80
2016,07,29,10,31,13.50
2016,07,29,10,32,18.80
2016,07,29,10,33,12.50
2016,07,29,10,34,5.90
2016,07,29,10,35,5.80
2016,07,29,10,36,11.30
2016,07,29,10,37,11.10
2016,07,29,10,38,9.10
2016,07,29,10,39,15.80
2016,07,29,10,40,18.40
2016,07,29,10,41,14.70
2016,07,29,10,42,12.20
2016,07,29,10,43,15.70
2016,07,29,10,44,14.10
2016,07,29,10,45,6.90
2016,07,29,10,46,10.60
2016,07,29,10,47,12.20
2016,07,29,10,48,10.60
2016,07,29,10,49,10.10
2016,07,29,10,50,14.80
2016,07,29,10,51,9.40
2016,07,29,10,52,12.00
2016,07,29,10,53,10.60
2016,07,29,10,54,6.30
2016,07,29,10,55,3.30
2016,07,29,10,56,7.20
2016,07,29,10,57,13.20
2016,07,29,10,58,14.50
2016,07,29,10,59,13.80
2016,07,29,11,00,17.40
2016,07,29,11,01,14.50
2016,07,29,11,02,12.10
2016,07,29,11,03,11.80
2016,07,29,11,04,15.70
2016,07,29,11,05,6.60
2016,07,29,11,06,6.00
2016,07,29,11,07,8.70
2016,07,29,11,08,10.80
2016,07,29,11,09,13.50
2016,07,29,11,10,13.40
2016,07,29,11,11,9.50
2016,07,29,11,12,8.30
2016,07,29,11,13,15.30
2016,07,29,11,14,11.10
2016,07,29,11,15,11.20
2016,07,29,11,16,11.60
2016,07,29,11,17,7.10
2016,07,29,11,18,7.90
2016,07,29,11,19,10.70
2016,07,29,11,20,13.80
2016,07,29,11,21,10.70
2016,07,29,11,22,12.40
2016,07,29,11,23,14.80
2016,07,29,11,24,11.70
2016,07,29,11,25,11.80
2016,07,29,11,26,9.00
2016,07,29,11,27,9.30
2016,07,29,11,28,10.90
2016,07,29,11,29,7.00
2016,07,29,11,30,9.10
2016,07,29,11,31,7.70
2016,07,29,11,32,12.90
2016,07,29,11,33,8.90
2016,07,29,11,34,10.80
2016,07,29,11,35,9.30
2016,07,29,11,36,6.90
2016,07,29,11,37,7.70
2016,07,29,11,38,13.00
2016,07,29,11,39,16.70
2016,07,29,11,40,15.10
2016,07,29,11,41,13.20
2016,07,29,11,42,11.90
2016,07,29,11,43,10.40
2016,07,29,11,44,11.00
2016,07,29,11,45,11.10
2016,07,29,11,46,11.90
2016,07,29,11,47,12.90
2016,07,29,11,48,10.50
2016,07,29,11,49,13.90
2016,07,29,11,50,11.20
2016,07,29,11,51,12.50
2016,07,29,11,52,11.70
2016,07,29,11,53,14.60
2016,07,29,11,54,13.20
2016,07,29,11,55,9.10
2016,07,29,11,56,7.20
2016,07,29,11,57,9.00
2016,07,29,11,58,4.90
2016,07,29,11,59,13.90
2016,07,29,12,00,13.10
2016,07,29,12,01,12.80
2016,07,29,12,02,9.40
2016,07,29,12,03,8.30
2016,07,29,12,04,12.40
2016,07,29,12,05,11.80
2016,07,29,12,06,18.60
2016,07,29,12,07,12.80
2016,07,29,12,08,14.80
2016,07,29,12,09,13.70
2016,07,29,12,10,5.10
2016,07,29,12,11,3.60
2016,07,29,12,12,5.70
2016,07,29,12,13,8.30
2016,07,29,12,14,6.20
2016,07,29,12,15,17.60
2016,07,29,12,16,16.60
2016,07,29,12,17,14.90
2016,07,29,12,18,10.80
2016,07,29,12,19,14.50
2016,07,29,12,20,12.50
2016,07,29,12,21,9.60
2016,07,29,12,22,10.10
2016,07,29,12,23,13.10
2016,07,29,12,24,15.50
2016,07,29,12,25,12.30
2016,07,29,12,26,5.50
2016,07,29,12,27,7.10
2016,07,29,12,28,6.00
2016,07,29,12,29,13.50
2016,07,29,12,30,10.70
2016,07,29,12,31,10.70
2016,07,29,12,32,7.50
2016,07,29,12,33,11.80
2016,07,29,12,34,12.10
2016,07,29,12,35,15.70
2016,07,29,12,36,11.00
2016,07,29,12,37,8.80
2016,07,29,12,38,8.50
2016,07,29,12,39,7.10
2016,07,29,12,40,15.60
2016,07,29,12,41,18.00
2016,07,29,12,42,14.70
2016,07,29,12,43,13.10
2016,07,29,12,44,10.80
2016,07,29,12,45,12.90
2016,07,29,12,46,12.40
2016,07,29,12,47,16.40
2016,07,29,12,48,18.50
2016,07,29,12,49,13.80
2016,07,29,12,50,15.60
2016,07,29,12,51,8.40
2016,07,29,12,52,8.80
2016,07,29,12,53,11.70
2016,07,29,12,54,10.20
2016,07,29,12,55,14.50
2016,07,29,12,56,16.40
2016,07,29,12,57,16.40
2016,07,29,12,58,18.10
2016,07,29,12,59,14.60
2016,07,29,13,00,15.40
2016,07,29,13,01,16.70
2016,07,29,13,02,15.70
2016,07,29,13,03,17.20
2016,07,29,13,04,12.80
2016,07,29,13,05,10.80
2016,07,29,13,06,18.00
2016,07,29,13,07,17.20
2016,07,29,13,08,14.30
2016,07,29,13,09,11.90
2016,07,29,13,10,15.60
2016,07,29,13,11,14.00
2016,07,29,13,12,10.60
2016,07,29,13,13,13.20
2016,07,29,13,14,14.40
2016,07,29,13,15,15.60
2016,07,29,13,16,16.00
2016,07,29,13,17,7.70
2016,07,29,13,18,16.90
2016,07,29,13,19,18.60
2016,07,29,13,20,15.30
2016,07,29,13,21,12.80
2016,07,29,13,22,15.70
2016,07,29,13,23,15.00
2016,07,29,13,24,13.90
2016,07,29,13,25,11.80
2016,07,29,13,26,17.20
2016,07,29,13,27,9.80
2016,07,29,13,28,15.00
2016,07,29,13,29,15.10
2016,07,29,13,30,17.30
2016,07,29,13,31,18.50
2016,07,29,13,32,16.40
2016,07,29,13,33,17.40
2016,07,29,13,34,14.20
2016,07,29,13,35,15.70
2016,07,29,13,36,15.40
2016,07,29,13,37,10.00
2016,07,29,13,38,15.50
2016,07,29,13,39,12.90
2016,07,29,13,40,10.90
2016,07,29,13,41,12.40
2016,07,29,13,42,14.10
2016,07,29,13,43,12.00
2016,07,29,13,44,12.90
2016,07,29,13,45,12.50
2016,07,29,13,46,14.00
2016,07,29,13,47,12.30
2016,07,29,13,48,16.70
2016,07,29,13,49,13.90
2016,07,29,13,50,9.20
2016,07,29,13,51,14.50
2016,07,29,13,52,9.90
2016,07,29,13,53,15.70
2016,07,29,13,54,17.90
2016,07,29,13,55,13.80
2016,07,29,13,56,18.10
2016,07,29,13,57,13.90
2016,07,29,13,58,18.20
2016,07,29,13,59,16.60
2016,07,29,14,00,15.30
2016,07,29,14,01,15.80
2016,07,29,14,02,19.30
2016,07,29,14,03,18.10
2016,07,29,14,04,21.30
2016,07,29,14,05,18.60
2016,07,29,14,06,19.90
2016,07,29,14,07,15.80
2016,07,29,14,08,17.20
2016,07,29,14,09,15.50
2016,07,29,14,10,18.40
2016,07,29,14,11,14.80
2016,07,29,14,12,18.20
2016,07,29,14,13,16.80
2016,07,29,14,14,9.90
2016,07,29,14,15,8.70
2016,07,29,14,16,17.90
2016,07,29,14,17,18.80
2016,07,29,14,18,19.10
2016,07,29,14,19,12.20
2016,07,29,14,20,8.50
2016,07,29,14,21,8.60
2016,07,29,14,22,15.30
2016,07,29,14,23,14.20
2016,07,29,14,24,14.50
2016,07,29,14,25,9.80
2016,07,29,14,26,10.30
2016,07,29,14,27,13.80
2016,07,29,14,28,13.80
2016,07,29,14,29,6.40
2016,07,29,14,30,12.00
2016,07,29,14,31,10.20
2016,07,29,14,32,10.00
2016,07,29,14,33,6.60
2016,07,29,14,34,11.30
2016,07,29,14,35,6.70
2016,07,29,14,36,11.20
2016,07,29,14,37,11.90
2016,07,29,14,38,10.80
2016,07,29,14,39,4.20
2016,07,29,14,40,9.70
2016,07,29,14,41,14.50
2016,07,29,14,42,7.70
2016,07,29,14,43,5.40
2016,07,29,14,44,2.50
2016,07,29,14,45,5.10
2016,07,29,14,46,15.50
2016,07,29,14,47,10.80
2016,07,29,14,48,16.30
2016,07,29,14,49,18.40
2016,07,29,14,50,16.90
2016,07,29,14,51,15.10
2016,07,29,14,52,11.90
2016,07,29,14,53,10.10
2016,07,29,14,54,16.10
2016,07,29,14,55,14.80
2016,07,29,14,56,14.60
2016,07,29,14,57,19.20
2016,07,29,14,58,19.50
2016,07,29,14,59,16.90
2016,07,29,15,00,10.20
2016,07,29,15,01,7.80
2016,07,29,15,02,12.30
2016,07,29,15,03,15.10
2016,07,29,15,04,12.70
2016,07,29,15,05,15.40
2016,07,29,15,06,12.40
2016,07,29,15,07,12.90
2016,07,29,15,08,16.00
2016,07,29,15,09,21.70
2016,07,29,15,10,19.00
2016,07,29,15,11,16.60
2016,07,29,15,12,16.30
2016,07,29,15,13,13.50
2016,07,29,15,14,18.90
2016,07,29,15,15,15.80
2016,07,29,15,16,19.10
2016,07,29,15,17,18.00
2016,07,29,15,18,12.60
2016,07,29,15,19,6.70
2016,07,29,15,20,10.50
2016,07,29,15,21,13.70
2016,07,29,15,22,16.60
2016,07,29,15,23,10.80
2016,07,29,15,24,11.90
2016,07,29,15,25,7.50
2016,07,29,15,26,11.10
2016,07,29,15,27,16.90
2016,07,29,15,28,19.20
2016,07,29,15,29,14.30
2016,07,29,15,30,8.50
2016,07,29,15,31,7.30
2016,07,29,15,32,9.70
2016,07,29,15,33,16.30
2016,07,29,15,34,11.70
2016,07,29,15,35,11.50
2016,07,29,15,36,13.00
2016,07,29,15,37,13.50
2016,07,29,15,38,12.50
2016,07,29,15,39,14.10
2016,07,29,15,40,17.50
2016,07,29,15,41,19.50
2016,07,29,15,42,13.80
2016,07,29,15,43,13.10
2016,07,29,15,44,18.90
2016,07,29,15,45,12.00
2016,07,29,15,46,18.00
2016,07,29,15,47,16.60
2016,07,29,15,48,23.40
2016,07,29,15,49,20.00
2016,07,29,15,50,17.90
2016,07,29,15,51,16.70
2016,07,29,15,52,17.60
2016,07,29,15,53,11.40
2016,07,29,15,54,8.40
2016,07,29,15,55,17.40
2016,07,29,15,56,16.60
2016,07,29,15,57,10.90
2016,07,29,15,58,18.40
2016,07,29,15,59,17.50
2016,07,29,16,00,14.20
2016,07,29,16,01,13.70
2016,07,29,16,02,17.20
2016,07,29,16,03,14.10
2016,07,29,16,04,16.40
2016,07,29,16,05,15.70
2016,07,29,16,06,12.00
2016,07,29,16,07,11.60
2016,07,29,16,08,13.20
2016,07,29,16,09,13.70
2016,07,29,16,10,15.90
2016,07,29,16,11,6.90
2016,07,29,16,12,14.80
2016,07,29,16,13,17.90
2016,07,29,16,14,20.60
2016,07,29,16,15,18.10
2016,07,29,16,16,20.10
2016,07,29,16,17,19.90
2016,07,29,16,18,10.40
2016,07,29,16,19,13.90
2016,07,29,16,20,16.50
2016,07,29,16,21,19.00
2016,07,29,16,22,17.30
2016,07,29,16,23,17.10
2016,07,29,16,24,14.70
2016,07,29,16,25,16.70
2016,07,29,16,26,11.10
2016,07,29,16,27,12.30
2016,07,29,16,28,14.40
2016,07,29,16,29,12.10
2016,07,29,16,30,10.90
2016,07,29,16,31,11.00
2016,07,29,16,32,13.90
2016,07,29,16,33,15.10
2016,07,29,16,34,14.50
2016,07,29,16,35,17.90
2016,07,29,16,36,15.70
2016,07,29,16,37,17.80
2016,07,29,16,38,12.90
2016,07,29,16,39,18.40
2016,07,29,16,40,16.60
2016,07,29,16,41,15.30
2016,07,29,16,42,17.70
2016,07,29,16,43,12.60
2016,07,29,16,44,15.30
2016,07,29,16,45,10.70
2016,07,29,16,46,9.80
2016,07,29,16,47,14.20
2016,07,29,16,48,17.20
2016,07,29,16,49,13.90
2016,07,29,16,50,7.60
2016,07,29,16,51,9.20
2016,07,29,16,52,14.40
2016,07,29,16,53,17.60
2016,07,29,16,54,13.90
2016,07,29,16,55,12.00
2016,07,29,16,56,10.90
2016,07,29,16,57,14.20
2016,07,29,16,58,13.20
2016,07,29,16,59,8.00
2016,07,29,17,00,10.80
2016,07,29,17,01,9.50
2016,07,29,17,02,11.90
2016,07,29,17,03,12.60
2016,07,29,17,04,12.90
2016,07,29,17,05,7.90
2016,07,29,17,06,13.30
2016,07,29,17,07,12.40
2016,07,29,17,08,13.50
2016,07,29,17,09,16.30
2016,07,29,17,10,17.40
2016,07,29,17,11,13.30
2016,07,29,17,12,8.00
2016,07,29,17,13,9.50
2016,07,29,17,14,15.00
2016,07,29,17,15,11.30
2016,07,29,17,16,13.30
2016,07,29,17,17,9.20
2016,07,29,17,18,13.20
2016,07,29,17,19,12.00
2016,07,29,17,20,7.20
2016,07,29,17,21,15.70
2016,07,29,17,22,12.20
2016,07,29,17,23,14.60
2016,07,29,17,24,10.30
2016,07,29,17,25,11.30
2016,07,29,17,26,14.10
2016,07,29,17,27,10.40
2016,07,29,17,28,10.70
2016,07,29,17,29,14.40
2016,07,29,17,30,11.80
2016,07,29,17,31,15.10
2016,07,29,17,32,12.60
2016,07,29,17,33,15.00
2016,07,29,17,34,14.40
2016,07,29,17,35,14.60
2016,07,29,17,36,10.90
2016,07,29,17,37,14.50
2016,07,29,17,38,9.20
2016,07,29,17,39,7.00
2016,07,29,17,40,9.10
2016,07,29,17,41,8.30
2016,07,29,17,42,12.30